Presure
143 130 144 152 113 116 116 122 121 128 96 117 111 135 126 169 176 169 163 157 156 114 118 156 130 144 154 119 118 140 131 156 182
146 125 117 122 145 142 106 126 109 126 132 110 169 127 152 178 177 162 107 156 152 150 148 160 156 154 129 196 177 156 182 158 205
140 135 136 109 120 156 102 144 147 112 133 167 149 164 179 164 146 124 152 127 154 148 160 158 97 117 139 152 171 161 170 197 182
154 137 141 129 105 136 130 143 101 126 115 137 106 119 123 187 111 119 150 149 149 158 165 157 200 163 197 132 187 165 166 193 188
128 120 123 130 146 159 121 118 119 166 133 137 162 185 188 183 120 139 142 150 157 170 157 164 148 199 181 166 122 205 187 204 196
129 122 149 143 147 159 136 154 156 157 146 169 120 189 114 110 129 139 103 144 165 232 188 179 176 214 166 179 177 191 154 153 207
132 145 141 124 139 143 129 139 140 150 149 199 150 190 160 155 152 172 143 183 165 134 186 154 156 164 186 177 150 190 193 129 203
118 125 133 134 148 111 131 133 156 133 191 181 177 145 171 163 154 161 142 153 155 175 142 184 158 183 173 180 208 203 185 215 189
134 136 90 104 124 103 103 155 126 156 173 173 117 170 170 171 155 199 107 149 124 154 133 199 177 186 187 167 199 195 178 208 129
116 117 97 154 157 142 148 126 135 164 189 169 163 162 172 101 101 94 149 149 138 192 203 197 185 184 160 195 142 163 189 180 147
134 141 143 136 153 114 127 136 123 115 183 171 155 173 170 158 161 144 185 159 156 166 174 185 171 134 182 195 145 160 193 137 221
129 149 146 146 131 138 130 101 174 153 171 177 180 174 108 164 155 117 153 160 158 152 188 193 202 198 209 150 182 202 188 242 207
127 126 127 141 145 134 144 153 123 132 190 188 174 173 95 163 163 166 145 150 157 169 222 138 209 108 129 148 226 104 198 204 196
127 141 147 143 156 150 156 152 166 190 191 187 181 96 166 167 169 166 143 154 221 158 222 236 238 182 201 247 175 181 198 214 192
180 179 140 174 169 179 141 178 193 163 185 192 161 176 173 173 93 171 158 188 237 215 233 185 240 196 197 167 194 189 186 185 178
149 149 145 161 191 191 194 192 188 190 182 182 185 184 163 169 150 281 125 215 227 214 226 188 202 237 183 185 183 194 169 205 212
151 202 210 207 199 201 194 190 192 184 188 206 173 169 142 155 166 175 217 228 212 215 222 195 229 204 199 174 208 226 156 178 227
206 203 201 200 194 194 199 200 207 168 169 166 134 161 171 211 218 220 227 210 222 109 175 200 238 206 233 241 237 235 234 228 238
202 198 195 197 194 193 195 191 190 180 190 180 166 150 238 221 109 239 217 151 219 251 203 241 242 228 232 232 221 245 245 255 254
200 196 198 200 211 191 202 166 191 132 162 190 242 233 236 180 227 229 241 241 237 226 227 226 223 169 235 228 232 259 261 236 248
Wind_Speed
22 26 20 20 21 24 24 30 27 35 12 33 21 42 33 38 40 36 35 38 41 27 37 42 41 47 47 24 32 46 42 48 54
21 31 24 27 26 30 18 33 14 36 38 21 40 42 46 44 44 42 17 37 41 43 42 47 46 50 32 62 56 53 61 49 65
33 35 36 22 27 32 15 32 34 20 43 42 45 41 46 45 38 40 47 32 50 50 51 50 9 28 43 45 59 56 59 69 63
31 34 33 30 17 33 37 34 25 43 22 44 26 39 36 49 32 41 57 59 60 60 61 59 58 62 71 43 71 60 57 72 75
37 28 31 36 36 39 27 34 37 47 46 49 45 49 48 47 35 57 60 63 67 66 62 67 50 76 69 63 41 80 79 79 81
41 37 46 37 38 40 43 40 39 38 38 52 30 50 20 34 43 63 12 63 70 66 68 69 76 79 70 77 74 81 59 56 81
50 56 49 34 44 43 39 40 41 40 44 57 37 49 47 48 47 55 72 69 75 42 69 61 55 68 81 80 59 83 69 50 78
43 42 49 49 46 29 45 46 48 46 60 54 46 41 50 46 51 63 77 64 83 88 41 84 64 70 79 86 97 77 80 83 83
63 64 20 17 45 21 22 54 46 56 63 57 31 57 56 51 51 45 18 29 43 81 40 90 91 95 96 80 100 85 78 95 25
46 42 10 60 60 54 53 52 59 68 63 53 62 62 61 13 17 17 75 80 58 77 86 93 96 93 68 98 46 67 89 75 48
61 62 63 59 60 28 43 63 45 36 65 67 63 63 64 56 62 64 59 79 82 87 84 93 89 49 85 96 52 74 88 47 79
53 64 63 64 57 56 53 18 66 62 67 70 67 66 34 62 62 35 78 83 79 79 89 94 94 95 92 52 90 94 55 63 92
59 59 53 66 63 58 64 68 26 66 72 72 68 65 27 67 70 74 68 78 85 90 80 42 90 34 51 56 64 26 91 97 84
60 65 68 65 69 67 67 67 59 74 75 74 69 31 66 75 77 78 68 78 67 79 83 81 78 83 77 40 89 84 65 95 96
77 76 68 73 73 75 48 69 75 73 77 75 62 70 72 75 30 81 81 76 64 70 71 85 73 80 80 75 82 93 79 69 62
67 66 66 70 81 78 81 82 80 78 78 77 77 75 70 74 72 57 53 74 69 75 78 84 84 74 76 78 85 92 61 93 101
72 82 81 79 80 80 83 84 83 82 80 81 74 70 74 74 77 79 68 62 76 78 75 86 80 87 84 73 88 93 54 80 105
85 81 79 79 79 81 83 86 84 76 75 71 69 72 74 67 76 78 65 75 75 32 67 86 85 87 91 91 87 90 94 100 106
85 82 80 80 81 82 84 84 80 78 80 74 75 73 63 68 28 69 76 51 81 79 83 78 83 81 85 88 88 97 95 94 93
86 84 87 87 86 83 87 77 86 67 72 75 72 74 77 52 77 78 78 80 81 78 84 84 88 68 95 95 100 91 80 88 86
Wind_Direction
266 266 267 288 307 310 321 309 302 302 255 328 341 311 323 314 314 311 310 312 316 341 330 320 322 316 326 311 339 330 330 325 329
260 278 291 286 278 274 306 298 270 302 302 317 314 314 313 314 315 308 315 314 311 312 312 318 317 316 327 314 318 323 324 328 323
253 263 269 277 287 291 305 297 306 298 300 312 306 314 314 313 316 313 312 310 311 312 317 317 314 320 324 320 325 320 323 321 325
268 265 267 277 273 289 296 295 305 304 314 306 292 308 311 314 316 312 312 311 310 313 317 317 311 319 316 307 319 321 320 320 322
274 269 281 290 292 293 289 296 302 303 298 298 312 310 310 314 310 310 306 308 308 309 314 314 318 312 318 319 312 319 322 318 317
280 284 279 282 287 296 285 294 298 307 301 300 295 307 307 310 311 305 332 303 306 310 308 308 313 309 322 321 324 318 312 311 316
277 275 283 292 293 286 295 296 298 300 304 298 306 304 302 310 314 312 302 310 301 310 308 312 320 320 313 313 312 319 318 310 319
272 285 286 288 283 282 296 295 300 295 296 300 301 304 303 307 307 306 297 307 305 307 322 309 328 315 322 318 310 307 318 312 321
269 270 275 264 286 276 274 298 292 303 300 301 301 303 306 309 307 315 345 318 339 310 321 296 317 312 311 326 307 311 320 308 318
273 283 240 280 283 283 290 287 289 299 291 294 302 305 304 278 278 310 300 299 312 288 281 289 310 311 306 307 305 309 312 311 316
270 271 277 282 285 277 284 282 292 294 285 294 296 294 299 305 302 295 292 295 302 303 301 304 314 311 302 303 314 314 299 318 314
275 273 277 280 279 279 282 293 281 291 283 287 286 289 280 292 293 306 293 296 300 307 294 293 288 295 293 302 308 303 299 292 326
274 275 273 278 281 280 284 290 271 288 279 282 290 290 250 293 290 288 299 300 303 300 280 300 286 306 309 302 305 289 319 323 328
274 273 274 278 277 284 283 291 272 277 278 279 283 297 285 287 288 289 299 298 282 299 276 277 282 299 302 294 309 314 299 299 323
261 264 274 271 275 274 270 274 275 279 281 281 285 282 282 285 287 289 292 291 286 284 276 296 283 302 302 308 304 312 312 304 310
269 270 274 272 267 269 271 274 277 276 280 282 282 283 286 285 287 291 291 284 270 281 272 294 296 287 298 302 305 304 314 293 291
268 261 262 264 265 268 268 271 274 276 280 283 281 282 285 282 282 285 284 276 291 292 282 294 290 300 300 297 297 294 307 302 301
263 264 266 267 270 273 275 276 278 277 277 279 284 281 285 281 285 289 284 292 286 281 290 293 286 292 294 293 296 300 297 294 293
265 268 270 271 270 272 274 277 276 275 279 283 278 277 289 283 272 282 283 286 285 280 287 290 293 298 296 297 297 300 297 295 291
266 268 270 273 278 275 279 275 281 281 272 280 290 291 291 288 290 292 295 296 297 296 298 299 299 306 300 299 299 294 296 298 295